Orbital Elements at Epoch 2459200.5 (2020-Dec-17.0) TDB
Reference: JPL 23 (heliocentric ecliptic J2000)
Element | Value | Uncertainty (1-sigma) | Units |
e | .1648493961634172 | 5.3608e-08 | |
a | 2.851665894202037 | 1.7455e-08 | au |
q | 2.38157049348302 | 1.4668e-07 | au |
i | 6.627049416243332 | 3.441e-06 | deg |
node | 111.6489908571592 | 4.301e-05 | deg |
peri | 94.35482453287074 | 4.478e-05 | deg |
M | 62.79038465890951 | 1.0279e-05 | deg |
tp | 2458893.712943921662 (2020-Feb-14.21294392) | 5.0548e-05 | TDB |
period | 1758.921223180156 4.82 | 1.6149e-05 4.421e-08 | d yr |
n | .2046709058118672 | 1.8792e-09 | deg/d |
Q | 3.321761294921053 | 2.0332e-08 | au |
|
| | Orbit Determination Parameters
Additional Information
|